Year,Month,Day,Hour,Minute,Value (Times are PST for temperature in C)
2022,04,16,00,00,0.40
2022,04,16,00,01,0.40
2022,04,16,00,02,0.40
2022,04,16,00,03,0.30
2022,04,16,00,04,0.30
2022,04,16,00,05,0.40
2022,04,16,00,06,0.40
2022,04,16,00,07,0.50
2022,04,16,00,08,0.60
2022,04,16,00,09,0.60
2022,04,16,00,10,0.60
2022,04,16,00,11,0.60
2022,04,16,00,12,0.70
2022,04,16,00,13,0.80
2022,04,16,00,14,0.80
2022,04,16,00,15,0.90
2022,04,16,00,16,0.90
2022,04,16,00,17,0.90
2022,04,16,00,18,1.00
2022,04,16,00,19,1.00
2022,04,16,00,20,1.10
2022,04,16,00,21,1.10
2022,04,16,00,22,1.10
2022,04,16,00,23,1.10
2022,04,16,00,24,1.10
2022,04,16,00,25,1.20
2022,04,16,00,26,1.20
2022,04,16,00,27,1.30
2022,04,16,00,28,1.30
2022,04,16,00,29,1.30
2022,04,16,00,30,1.30
2022,04,16,00,31,1.40
2022,04,16,00,32,1.30
2022,04,16,00,33,1.40
2022,04,16,00,34,1.40
2022,04,16,00,35,1.40
2022,04,16,00,36,1.30
2022,04,16,00,37,1.30
2022,04,16,00,38,1.30
2022,04,16,00,39,1.40
2022,04,16,00,40,1.40
2022,04,16,00,41,1.40
2022,04,16,00,42,1.30
2022,04,16,00,43,1.30
2022,04,16,00,44,1.20
2022,04,16,00,45,1.10
2022,04,16,00,46,1.10
2022,04,16,00,47,1.10
2022,04,16,00,48,1.10
2022,04,16,00,49,1.10
2022,04,16,00,50,1.10
2022,04,16,00,51,1.10
2022,04,16,00,52,1.20
2022,04,16,00,53,1.20
2022,04,16,00,54,1.20
2022,04,16,00,55,1.10
2022,04,16,00,56,1.10
2022,04,16,00,57,1.20
2022,04,16,00,58,1.10
2022,04,16,00,59,1.20
2022,04,16,01,00,1.20
2022,04,16,01,01,1.10
2022,04,16,01,02,1.10
2022,04,16,01,03,1.00
2022,04,16,01,04,1.00
2022,04,16,01,05,1.00
2022,04,16,01,06,1.00
2022,04,16,01,07,0.90
2022,04,16,01,08,1.00
2022,04,16,01,09,1.00
2022,04,16,01,10,1.10
2022,04,16,01,11,1.00
2022,04,16,01,12,1.00
2022,04,16,01,13,1.00
2022,04,16,01,14,1.00
2022,04,16,01,15,0.90
2022,04,16,01,16,0.90
2022,04,16,01,17,0.90
2022,04,16,01,18,0.90
2022,04,16,01,19,0.90
2022,04,16,01,20,1.00
2022,04,16,01,21,1.00
2022,04,16,01,22,1.00
2022,04,16,01,23,0.90
2022,04,16,01,24,0.90
2022,04,16,01,25,0.90
2022,04,16,01,26,0.90
2022,04,16,01,27,0.90
2022,04,16,01,28,0.80
2022,04,16,01,29,0.80
2022,04,16,01,30,0.80
2022,04,16,01,31,0.90
2022,04,16,01,32,0.90
2022,04,16,01,33,0.90
2022,04,16,01,34,1.00
2022,04,16,01,35,1.10
2022,04,16,01,36,1.20
2022,04,16,01,37,1.20
2022,04,16,01,38,1.20
2022,04,16,01,39,1.30
2022,04,16,01,40,1.30
2022,04,16,01,41,1.40
2022,04,16,01,42,1.40
2022,04,16,01,43,1.40
2022,04,16,01,44,1.50
2022,04,16,01,45,1.50
2022,04,16,01,46,1.50
2022,04,16,01,47,1.50
2022,04,16,01,48,1.60
2022,04,16,01,49,1.60
2022,04,16,01,50,1.70
2022,04,16,01,51,1.80
2022,04,16,01,52,1.80
2022,04,16,01,53,1.80
2022,04,16,01,54,1.90
2022,04,16,01,55,1.90
2022,04,16,01,56,1.90
2022,04,16,01,57,1.90
2022,04,16,01,58,1.90
2022,04,16,01,59,1.90
2022,04,16,02,00,1.90
2022,04,16,02,01,1.90
2022,04,16,02,02,2.00
2022,04,16,02,03,2.00
2022,04,16,02,04,2.00
2022,04,16,02,05,2.10
2022,04,16,02,06,2.10
2022,04,16,02,07,2.10
2022,04,16,02,08,2.10
2022,04,16,02,09,2.10
2022,04,16,02,10,2.10
2022,04,16,02,11,2.10
2022,04,16,02,12,2.10
2022,04,16,02,13,2.10
2022,04,16,02,14,2.00
2022,04,16,02,15,2.00
2022,04,16,02,16,2.00
2022,04,16,02,17,2.00
2022,04,16,02,18,2.10
2022,04,16,02,19,2.10
2022,04,16,02,20,2.20
2022,04,16,02,21,2.20
2022,04,16,02,22,2.20
2022,04,16,02,23,2.20
2022,04,16,02,24,2.20
2022,04,16,02,25,2.30
2022,04,16,02,26,2.30
2022,04,16,02,27,2.30
2022,04,16,02,28,2.40
2022,04,16,02,29,2.40
2022,04,16,02,30,2.50
2022,04,16,02,31,2.50
2022,04,16,02,32,2.50
2022,04,16,02,33,2.40
2022,04,16,02,34,2.50
2022,04,16,02,35,2.50
2022,04,16,02,36,2.50
2022,04,16,02,37,2.50
2022,04,16,02,38,2.50
2022,04,16,02,39,2.40
2022,04,16,02,40,2.40
2022,04,16,02,41,2.40
2022,04,16,02,42,2.40
2022,04,16,02,43,2.40
2022,04,16,02,44,2.40
2022,04,16,02,45,2.40
2022,04,16,02,46,2.40
2022,04,16,02,47,2.30
2022,04,16,02,48,2.30
2022,04,16,02,49,2.20
2022,04,16,02,50,2.20
2022,04,16,02,51,2.20
2022,04,16,02,52,2.20
2022,04,16,02,53,2.20
2022,04,16,02,54,2.20
2022,04,16,02,55,2.20
2022,04,16,02,56,2.20
2022,04,16,02,57,2.20
2022,04,16,02,58,2.20
2022,04,16,02,59,2.20
2022,04,16,03,00,2.10
2022,04,16,03,01,2.00
2022,04,16,03,02,2.00
2022,04,16,03,03,2.00
2022,04,16,03,04,1.90
2022,04,16,03,05,1.80
2022,04,16,03,06,1.80
2022,04,16,03,07,1.70
2022,04,16,03,08,1.70
2022,04,16,03,09,1.70
2022,04,16,03,10,1.80
2022,04,16,03,11,1.80
2022,04,16,03,12,1.80
2022,04,16,03,13,1.80
2022,04,16,03,14,1.80
2022,04,16,03,15,1.80
2022,04,16,03,16,1.80
2022,04,16,03,17,1.90
2022,04,16,03,18,1.90
2022,04,16,03,19,2.00
2022,04,16,03,20,2.10
2022,04,16,03,21,2.10
2022,04,16,03,22,2.10
2022,04,16,03,23,2.10
2022,04,16,03,24,2.10
2022,04,16,03,25,2.10
2022,04,16,03,26,2.10
2022,04,16,03,27,2.10
2022,04,16,03,28,2.20
2022,04,16,03,29,2.20
2022,04,16,03,30,2.20
2022,04,16,03,31,2.20
2022,04,16,03,32,2.20
2022,04,16,03,33,2.20
2022,04,16,03,34,2.20
2022,04,16,03,35,2.10
2022,04,16,03,36,2.10
2022,04,16,03,37,2.20
2022,04,16,03,38,2.30
2022,04,16,03,39,2.30
2022,04,16,03,40,2.40
2022,04,16,03,41,2.40
2022,04,16,03,42,2.40
2022,04,16,03,43,2.40
2022,04,16,03,44,2.50
2022,04,16,03,45,2.50
2022,04,16,03,46,2.60
2022,04,16,03,47,2.60
2022,04,16,03,48,2.60
2022,04,16,03,49,2.60
2022,04,16,03,50,2.50
2022,04,16,03,51,2.50
2022,04,16,03,52,2.40
2022,04,16,03,53,2.40
2022,04,16,03,54,2.40
2022,04,16,03,55,2.50
2022,04,16,03,56,2.50
2022,04,16,03,57,2.60
2022,04,16,03,58,2.60
2022,04,16,03,59,2.60
2022,04,16,04,00,2.70
2022,04,16,04,01,2.70
2022,04,16,04,02,2.70
2022,04,16,04,03,2.70
2022,04,16,04,04,2.80
2022,04,16,04,05,2.80
2022,04,16,04,06,2.80
2022,04,16,04,07,2.80
2022,04,16,04,08,2.80
2022,04,16,04,09,2.80
2022,04,16,04,10,2.80
2022,04,16,04,11,2.80
2022,04,16,04,12,2.80
2022,04,16,04,13,2.80
2022,04,16,04,14,2.80
2022,04,16,04,15,2.80
2022,04,16,04,16,2.80
2022,04,16,04,17,2.80
2022,04,16,04,18,2.80
2022,04,16,04,19,2.80
2022,04,16,04,20,2.80
2022,04,16,04,21,2.90
2022,04,16,04,22,2.90
2022,04,16,04,23,2.90
2022,04,16,04,24,2.90
2022,04,16,04,25,2.90
2022,04,16,04,26,3.00
2022,04,16,04,27,3.00
2022,04,16,04,28,2.90
2022,04,16,04,29,2.90
2022,04,16,04,30,2.80
2022,04,16,04,31,2.80
2022,04,16,04,32,2.80
2022,04,16,04,33,2.80
2022,04,16,04,34,2.80
2022,04,16,04,35,2.90
2022,04,16,04,36,2.90
2022,04,16,04,37,2.90
2022,04,16,04,38,2.90
2022,04,16,04,39,2.90
2022,04,16,04,40,2.90
2022,04,16,04,41,2.90
2022,04,16,04,42,2.90
2022,04,16,04,43,3.00
2022,04,16,04,44,3.00
2022,04,16,04,45,3.00
2022,04,16,04,46,2.90
2022,04,16,04,47,2.90
2022,04,16,04,48,2.90
2022,04,16,04,49,2.90
2022,04,16,04,50,2.90
2022,04,16,04,51,2.90
2022,04,16,04,52,2.90
2022,04,16,04,53,2.90
2022,04,16,04,54,2.90
2022,04,16,04,55,2.90
2022,04,16,04,56,3.00
2022,04,16,04,57,3.00
2022,04,16,04,58,3.00
2022,04,16,04,59,2.90
2022,04,16,05,00,2.90
2022,04,16,05,01,2.90
2022,04,16,05,02,3.00
2022,04,16,05,03,2.90
2022,04,16,05,04,3.00
2022,04,16,05,05,3.00
2022,04,16,05,06,3.00
2022,04,16,05,07,3.00
2022,04,16,05,08,3.00
2022,04,16,05,09,3.10
2022,04,16,05,10,3.10
2022,04,16,05,11,3.10
2022,04,16,05,12,3.10
2022,04,16,05,13,3.10
2022,04,16,05,14,3.10
2022,04,16,05,15,3.10
2022,04,16,05,16,3.10
2022,04,16,05,17,3.10
2022,04,16,05,18,3.10
2022,04,16,05,19,3.10
2022,04,16,05,20,3.10
2022,04,16,05,21,3.10
2022,04,16,05,22,3.10
2022,04,16,05,23,3.10
2022,04,16,05,24,3.20
2022,04,16,05,25,3.20
2022,04,16,05,26,3.10
2022,04,16,05,27,3.10
2022,04,16,05,28,3.20
2022,04,16,05,29,3.10
2022,04,16,05,30,3.20
2022,04,16,05,31,3.20
2022,04,16,05,32,3.20
2022,04,16,05,33,3.20
2022,04,16,05,34,3.20
2022,04,16,05,35,3.20
2022,04,16,05,36,3.20
2022,04,16,05,37,3.20
2022,04,16,05,38,3.20
2022,04,16,05,39,3.20
2022,04,16,05,40,3.20
2022,04,16,05,41,3.20
2022,04,16,05,42,3.20
2022,04,16,05,43,3.20
2022,04,16,05,44,3.20
2022,04,16,05,45,3.20
2022,04,16,05,46,3.10
2022,04,16,05,47,3.10
2022,04,16,05,48,3.10
2022,04,16,05,49,3.10
2022,04,16,05,50,3.10
2022,04,16,05,51,3.10
2022,04,16,05,52,3.10
2022,04,16,05,53,3.10
2022,04,16,05,54,3.10
2022,04,16,05,55,3.10
2022,04,16,05,56,3.10
2022,04,16,05,57,3.10
2022,04,16,05,58,3.10
2022,04,16,05,59,3.10
2022,04,16,06,00,3.10
2022,04,16,06,01,3.10
2022,04,16,06,02,3.10
2022,04,16,06,03,3.10
2022,04,16,06,04,3.10
2022,04,16,06,05,3.10
2022,04,16,06,06,3.10
2022,04,16,06,07,3.10
2022,04,16,06,08,3.10
2022,04,16,06,09,3.10
2022,04,16,06,10,3.10
2022,04,16,06,11,3.10
2022,04,16,06,12,3.10
2022,04,16,06,13,3.10
2022,04,16,06,14,3.10
2022,04,16,06,15,3.00
2022,04,16,06,16,3.00
2022,04,16,06,17,3.00
2022,04,16,06,18,3.00
2022,04,16,06,19,3.00
2022,04,16,06,20,3.00
2022,04,16,06,21,3.00
2022,04,16,06,22,3.00
2022,04,16,06,23,3.00
2022,04,16,06,24,3.00
2022,04,16,06,25,3.10
2022,04,16,06,26,3.00
2022,04,16,06,27,3.00
2022,04,16,06,28,3.00
2022,04,16,06,29,3.00
2022,04,16,06,30,3.00
2022,04,16,06,31,3.00
2022,04,16,06,32,3.00
2022,04,16,06,33,3.00
2022,04,16,06,34,3.00
2022,04,16,06,35,3.00
2022,04,16,06,36,3.00
2022,04,16,06,37,3.00
2022,04,16,06,38,3.00
2022,04,16,06,39,3.00
2022,04,16,06,40,3.00
2022,04,16,06,41,3.00
2022,04,16,06,42,3.00
2022,04,16,06,43,3.00
2022,04,16,06,44,3.00
2022,04,16,06,45,3.00
2022,04,16,06,46,3.00
2022,04,16,06,47,3.00
2022,04,16,06,48,3.00
2022,04,16,06,49,3.00
2022,04,16,06,50,3.10
2022,04,16,06,51,3.10
2022,04,16,06,52,3.10
2022,04,16,06,53,3.10
2022,04,16,06,54,3.10
2022,04,16,06,55,3.10
2022,04,16,06,56,3.10
2022,04,16,06,57,3.10
2022,04,16,06,58,3.10
2022,04,16,06,59,3.10
2022,04,16,07,00,3.10
2022,04,16,07,01,3.10
2022,04,16,07,02,3.20
2022,04,16,07,03,3.20
2022,04,16,07,04,3.10
2022,04,16,07,05,3.20
2022,04,16,07,06,3.20
2022,04,16,07,07,3.20
2022,04,16,07,08,3.20
2022,04,16,07,09,3.20
2022,04,16,07,10,3.20
2022,04,16,07,11,3.20
2022,04,16,07,12,3.20
2022,04,16,07,13,3.20
2022,04,16,07,14,3.20
2022,04,16,07,15,3.20
2022,04,16,07,16,3.20
2022,04,16,07,17,3.20
2022,04,16,07,18,3.30
2022,04,16,07,19,3.30
2022,04,16,07,20,3.30
2022,04,16,07,21,3.40
2022,04,16,07,22,3.40
2022,04,16,07,23,3.40
2022,04,16,07,24,3.40
2022,04,16,07,25,3.40
2022,04,16,07,26,3.40
2022,04,16,07,27,3.50
2022,04,16,07,28,3.50
2022,04,16,07,29,3.50
2022,04,16,07,30,3.50
2022,04,16,07,31,3.50
2022,04,16,07,32,3.60
2022,04,16,07,33,3.60
2022,04,16,07,34,3.60
2022,04,16,07,35,3.70
2022,04,16,07,36,3.70
2022,04,16,07,37,3.70
2022,04,16,07,38,3.70
2022,04,16,07,39,3.70
2022,04,16,07,40,3.80
2022,04,16,07,41,3.80
2022,04,16,07,42,3.80
2022,04,16,07,43,3.80
2022,04,16,07,44,3.80
2022,04,16,07,45,3.80
2022,04,16,07,46,3.80
2022,04,16,07,47,3.80
2022,04,16,07,48,3.80
2022,04,16,07,49,3.90
2022,04,16,07,50,3.90
2022,04,16,07,51,3.90
2022,04,16,07,52,3.90
2022,04,16,07,53,3.90
2022,04,16,07,54,4.00
2022,04,16,07,55,4.00
2022,04,16,07,56,4.00
2022,04,16,07,57,4.10
2022,04,16,07,58,4.10
2022,04,16,07,59,4.10
2022,04,16,08,00,4.10
2022,04,16,08,01,4.10
2022,04,16,08,02,4.10
2022,04,16,08,03,4.20
2022,04,16,08,04,4.20
2022,04,16,08,05,4.20
2022,04,16,08,06,4.20
2022,04,16,08,07,4.20
2022,04,16,08,08,4.30
2022,04,16,08,09,4.30
2022,04,16,08,10,4.30
2022,04,16,08,11,4.30
2022,04,16,08,12,4.30
2022,04,16,08,13,4.30
2022,04,16,08,14,4.40
2022,04,16,08,15,4.40
2022,04,16,08,16,4.40
2022,04,16,08,17,4.40
2022,04,16,08,18,4.40
2022,04,16,08,19,4.40
2022,04,16,08,20,4.40
2022,04,16,08,21,4.40
2022,04,16,08,22,4.50
2022,04,16,08,23,4.50
2022,04,16,08,24,4.50
2022,04,16,08,25,4.50
2022,04,16,08,26,4.50
2022,04,16,08,27,4.50
2022,04,16,08,28,4.50
2022,04,16,08,29,4.50
2022,04,16,08,30,4.60
2022,04,16,08,31,4.60
2022,04,16,08,32,4.60
2022,04,16,08,33,4.60
2022,04,16,08,34,4.60
2022,04,16,08,35,4.60
2022,04,16,08,36,4.70
2022,04,16,08,37,4.70
2022,04,16,08,38,4.70
2022,04,16,08,39,4.70
2022,04,16,08,40,4.70
2022,04,16,08,41,4.70
2022,04,16,08,42,4.70
2022,04,16,08,43,4.70
2022,04,16,08,44,4.70
2022,04,16,08,45,4.80
2022,04,16,08,46,4.80
2022,04,16,08,47,4.80
2022,04,16,08,48,4.80
2022,04,16,08,49,4.80
2022,04,16,08,50,4.80
2022,04,16,08,51,4.80
2022,04,16,08,52,4.80
2022,04,16,08,53,4.90
2022,04,16,08,54,4.90
2022,04,16,08,55,4.90
2022,04,16,08,56,4.90
2022,04,16,08,57,5.00
2022,04,16,08,58,5.00
2022,04,16,08,59,5.00
2022,04,16,09,00,5.10
2022,04,16,09,01,5.20
2022,04,16,09,02,5.20
2022,04,16,09,03,5.20
2022,04,16,09,04,5.20
2022,04,16,09,05,5.20
2022,04,16,09,06,5.30
2022,04,16,09,07,5.30
2022,04,16,09,08,5.30
2022,04,16,09,09,5.30
2022,04,16,09,10,5.20
2022,04,16,09,11,5.30
2022,04,16,09,12,5.30
2022,04,16,09,13,5.30
2022,04,16,09,14,5.30
2022,04,16,09,15,5.30
2022,04,16,09,16,5.30
2022,04,16,09,17,5.30
2022,04,16,09,18,5.30
2022,04,16,09,19,5.20
2022,04,16,09,20,5.20
2022,04,16,09,21,5.20
2022,04,16,09,22,5.20
2022,04,16,09,23,5.20
2022,04,16,09,24,5.20
2022,04,16,09,25,5.20
2022,04,16,09,26,5.20
2022,04,16,09,27,5.20
2022,04,16,09,28,5.30
2022,04,16,09,29,5.30
2022,04,16,09,30,5.30
2022,04,16,09,31,5.30
2022,04,16,09,32,5.30
2022,04,16,09,33,5.30
2022,04,16,09,34,5.30
2022,04,16,09,35,5.40
2022,04,16,09,36,5.40
2022,04,16,09,37,5.40
2022,04,16,09,38,5.50
2022,04,16,09,39,5.50
2022,04,16,09,40,5.60
2022,04,16,09,41,5.60
2022,04,16,09,42,5.60
2022,04,16,09,43,5.60
2022,04,16,09,44,5.60
2022,04,16,09,45,5.70
2022,04,16,09,46,5.70
2022,04,16,09,47,5.80
2022,04,16,09,48,5.80
2022,04,16,09,49,5.80
2022,04,16,09,50,5.80
2022,04,16,09,51,5.80
2022,04,16,09,52,5.90
2022,04,16,09,53,5.90
2022,04,16,09,54,5.90
2022,04,16,09,55,5.90
2022,04,16,09,56,5.90
2022,04,16,09,57,6.00
2022,04,16,09,58,6.10
2022,04,16,09,59,6.10
2022,04,16,10,00,6.00
2022,04,16,10,01,6.00
2022,04,16,10,02,6.00
2022,04,16,10,03,6.00
2022,04,16,10,04,6.00
2022,04,16,10,05,6.00
2022,04,16,10,06,6.00
2022,04,16,10,07,6.00
2022,04,16,10,08,6.00
2022,04,16,10,09,6.00
2022,04,16,10,10,6.10
2022,04,16,10,11,6.10
2022,04,16,10,12,6.20
2022,04,16,10,13,6.20
2022,04,16,10,14,6.20
2022,04,16,10,15,6.20
2022,04,16,10,16,6.20
2022,04,16,10,17,6.20
2022,04,16,10,18,6.20
2022,04,16,10,19,6.20
2022,04,16,10,20,6.20
2022,04,16,10,21,6.20
2022,04,16,10,22,6.30
2022,04,16,10,23,6.40
2022,04,16,10,24,6.50
2022,04,16,10,25,6.50
2022,04,16,10,26,6.50
2022,04,16,10,27,6.50
2022,04,16,10,28,6.50
2022,04,16,10,29,6.50
2022,04,16,10,30,6.50
2022,04,16,10,31,6.50
2022,04,16,10,32,6.50
2022,04,16,10,33,6.60
2022,04,16,10,34,6.60
2022,04,16,10,35,6.60
2022,04,16,10,36,6.60
2022,04,16,10,37,6.60
2022,04,16,10,38,6.70
2022,04,16,10,39,6.70
2022,04,16,10,40,6.70
2022,04,16,10,41,6.80
2022,04,16,10,42,6.80
2022,04,16,10,43,6.90
2022,04,16,10,44,6.80
2022,04,16,10,45,6.80
2022,04,16,10,46,6.90
2022,04,16,10,47,6.90
2022,04,16,10,48,6.90
2022,04,16,10,49,7.00
2022,04,16,10,50,7.00
2022,04,16,10,51,7.00
2022,04,16,10,52,7.00
2022,04,16,10,53,6.90
2022,04,16,10,54,6.90
2022,04,16,10,55,6.80
2022,04,16,10,56,6.80
2022,04,16,10,57,6.90
2022,04,16,10,58,6.90
2022,04,16,10,59,6.90
2022,04,16,11,00,6.90
2022,04,16,11,01,6.90
2022,04,16,11,02,6.90
2022,04,16,11,03,7.00
2022,04,16,11,04,7.00
2022,04,16,11,05,7.00
2022,04,16,11,06,6.90
2022,04,16,11,07,7.00
2022,04,16,11,08,6.90
2022,04,16,11,09,7.00
2022,04,16,11,10,7.10
2022,04,16,11,11,7.10
2022,04,16,11,12,7.20
2022,04,16,11,13,7.30
2022,04,16,11,14,7.30
2022,04,16,11,15,7.50
2022,04,16,11,16,7.60
2022,04,16,11,17,7.60
2022,04,16,11,18,7.60
2022,04,16,11,19,7.50
2022,04,16,11,20,7.50
2022,04,16,11,21,7.60
2022,04,16,11,22,7.60
2022,04,16,11,23,7.70
2022,04,16,11,24,7.80
2022,04,16,11,25,7.80
2022,04,16,11,26,7.80
2022,04,16,11,27,7.70
2022,04,16,11,28,7.70
2022,04,16,11,29,7.80
2022,04,16,11,30,7.80
2022,04,16,11,31,7.70
2022,04,16,11,32,7.70
2022,04,16,11,33,7.70
2022,04,16,11,34,7.70
2022,04,16,11,35,7.70
2022,04,16,11,36,7.60
2022,04,16,11,37,7.60
2022,04,16,11,38,7.70
2022,04,16,11,39,7.70
2022,04,16,11,40,7.80
2022,04,16,11,41,7.90
2022,04,16,11,42,7.90
2022,04,16,11,43,7.90
2022,04,16,11,44,7.80
2022,04,16,11,45,7.80
2022,04,16,11,46,7.70
2022,04,16,11,47,7.70
2022,04,16,11,48,7.70
2022,04,16,11,49,7.80
2022,04,16,11,50,7.80
2022,04,16,11,51,7.70
2022,04,16,11,52,7.80
2022,04,16,11,53,7.90
2022,04,16,11,54,8.10
2022,04,16,11,55,8.10
2022,04,16,11,56,8.20
2022,04,16,11,57,8.30
2022,04,16,11,58,8.30
2022,04,16,11,59,8.40
2022,04,16,12,00,8.40
2022,04,16,12,01,8.40
2022,04,16,12,02,8.40
2022,04,16,12,03,8.30
2022,04,16,12,04,8.40
2022,04,16,12,05,8.40
2022,04,16,12,06,8.40
2022,04,16,12,07,8.40
2022,04,16,12,08,8.40
2022,04,16,12,09,8.40
2022,04,16,12,10,8.40
2022,04,16,12,11,8.40
2022,04,16,12,12,8.40
2022,04,16,12,13,8.30
2022,04,16,12,14,8.30
2022,04,16,12,15,8.30
2022,04,16,12,16,8.40
2022,04,16,12,17,8.50
2022,04,16,12,18,8.60
2022,04,16,12,19,8.70
2022,04,16,12,20,8.70
2022,04,16,12,21,8.70
2022,04,16,12,22,8.80
2022,04,16,12,23,8.80
2022,04,16,12,24,8.80
2022,04,16,12,25,8.80
2022,04,16,12,26,8.80
2022,04,16,12,27,8.70
2022,04,16,12,28,8.80
2022,04,16,12,29,8.80
2022,04,16,12,30,8.80
2022,04,16,12,31,8.80
2022,04,16,12,32,8.90
2022,04,16,12,33,8.90
2022,04,16,12,34,9.00
2022,04,16,12,35,9.00
2022,04,16,12,36,9.10
2022,04,16,12,37,9.10
2022,04,16,12,38,9.10
2022,04,16,12,39,9.10
2022,04,16,12,40,9.10
2022,04,16,12,41,9.20
2022,04,16,12,42,9.10
2022,04,16,12,43,9.10
2022,04,16,12,44,9.00
2022,04,16,12,45,9.00
2022,04,16,12,46,9.00
2022,04,16,12,47,9.00
2022,04,16,12,48,9.00
2022,04,16,12,49,9.00
2022,04,16,12,50,9.10
2022,04,16,12,51,9.20
2022,04,16,12,52,9.20
2022,04,16,12,53,9.20
2022,04,16,12,54,9.20
2022,04,16,12,55,9.20
2022,04,16,12,56,9.10
2022,04,16,12,57,9.20
2022,04,16,12,58,9.20
2022,04,16,12,59,9.30
2022,04,16,13,00,9.40
2022,04,16,13,01,9.40
2022,04,16,13,02,9.50
2022,04,16,13,03,9.50
2022,04,16,13,04,9.50
2022,04,16,13,05,9.50
2022,04,16,13,06,9.40
2022,04,16,13,07,9.50
2022,04,16,13,08,9.60
2022,04,16,13,09,9.70
2022,04,16,13,10,9.70
2022,04,16,13,11,9.60
2022,04,16,13,12,9.60
2022,04,16,13,13,9.60
2022,04,16,13,14,9.60
2022,04,16,13,15,9.70
2022,04,16,13,16,9.80
2022,04,16,13,17,9.80
2022,04,16,13,18,9.80
2022,04,16,13,19,9.80
2022,04,16,13,20,9.90
2022,04,16,13,21,10.00
2022,04,16,13,22,10.10
2022,04,16,13,23,10.30
2022,04,16,13,24,10.40
2022,04,16,13,25,10.60
2022,04,16,13,26,10.70
2022,04,16,13,27,10.70
2022,04,16,13,28,10.80
2022,04,16,13,29,10.70
2022,04,16,13,30,10.70
2022,04,16,13,31,10.70
2022,04,16,13,32,10.60
2022,04,16,13,33,10.60
2022,04,16,13,34,10.60
2022,04,16,13,35,10.60
2022,04,16,13,36,10.60
2022,04,16,13,37,10.70
2022,04,16,13,38,10.70
2022,04,16,13,39,10.80
2022,04,16,13,40,10.80
2022,04,16,13,41,10.70
2022,04,16,13,42,10.70
2022,04,16,13,43,10.70
2022,04,16,13,44,10.60
2022,04,16,13,45,10.60
2022,04,16,13,46,10.50
2022,04,16,13,47,10.40
2022,04,16,13,48,10.50
2022,04,16,13,49,10.60
2022,04,16,13,50,10.60
2022,04,16,13,51,10.50
2022,04,16,13,52,10.50
2022,04,16,13,53,10.60
2022,04,16,13,54,10.50
2022,04,16,13,55,10.50
2022,04,16,13,56,10.50
2022,04,16,13,57,10.60
2022,04,16,13,58,10.70
2022,04,16,13,59,10.70
2022,04,16,14,00,10.80
2022,04,16,14,01,11.00
2022,04,16,14,02,11.10
2022,04,16,14,03,11.20
2022,04,16,14,04,11.20
2022,04,16,14,05,11.20
2022,04,16,14,06,11.20
2022,04,16,14,07,11.30
2022,04,16,14,08,11.30
2022,04,16,14,09,11.30
2022,04,16,14,10,11.30
2022,04,16,14,11,11.30
2022,04,16,14,12,11.30
2022,04,16,14,13,11.30
2022,04,16,14,14,11.30
2022,04,16,14,15,11.40
2022,04,16,14,16,11.40
2022,04,16,14,17,11.40
2022,04,16,14,18,11.40
2022,04,16,14,19,11.50
2022,04,16,14,20,11.50
2022,04,16,14,21,11.50
2022,04,16,14,22,11.60
2022,04,16,14,23,11.50
2022,04,16,14,24,11.60
2022,04,16,14,25,11.60
2022,04,16,14,26,11.60
2022,04,16,14,27,11.60
2022,04,16,14,28,11.70
2022,04,16,14,29,11.80
2022,04,16,14,30,11.80
2022,04,16,14,31,11.70
2022,04,16,14,32,11.60
2022,04,16,14,33,11.60
2022,04,16,14,34,11.60
2022,04,16,14,35,11.60
2022,04,16,14,36,11.70
2022,04,16,14,37,11.70
2022,04,16,14,38,11.80
2022,04,16,14,39,11.80
2022,04,16,14,40,11.70
2022,04,16,14,41,11.70
2022,04,16,14,42,11.60
2022,04,16,14,43,11.70
2022,04,16,14,44,11.70
2022,04,16,14,45,11.70
2022,04,16,14,46,11.70
2022,04,16,14,47,11.70
2022,04,16,14,48,11.70
2022,04,16,14,49,11.70
2022,04,16,14,50,11.70
2022,04,16,14,51,11.80
2022,04,16,14,52,11.80
2022,04,16,14,53,11.80
2022,04,16,14,54,11.80
2022,04,16,14,55,11.80
2022,04,16,14,56,11.80
2022,04,16,14,57,12.00
2022,04,16,14,58,12.10
2022,04,16,14,59,12.20
2022,04,16,15,00,12.20
2022,04,16,15,01,12.20
2022,04,16,15,02,12.10
2022,04,16,15,03,12.00
2022,04,16,15,04,12.00
2022,04,16,15,05,12.10
2022,04,16,15,06,12.20
2022,04,16,15,07,12.30
2022,04,16,15,08,12.30
2022,04,16,15,09,12.40
2022,04,16,15,10,12.40
2022,04,16,15,11,12.50
2022,04,16,15,12,12.50
2022,04,16,15,13,12.40
2022,04,16,15,14,12.20
2022,04,16,15,15,12.10
2022,04,16,15,16,11.90
2022,04,16,15,17,11.80
2022,04,16,15,18,11.70
2022,04,16,15,19,11.70
2022,04,16,15,20,11.70
2022,04,16,15,21,11.60
2022,04,16,15,22,11.60
2022,04,16,15,23,11.60
2022,04,16,15,24,11.60
2022,04,16,15,25,11.60
2022,04,16,15,26,11.60
2022,04,16,15,27,11.60
2022,04,16,15,28,11.60
2022,04,16,15,29,11.70
2022,04,16,15,30,11.80
2022,04,16,15,31,12.00
2022,04,16,15,32,12.10
2022,04,16,15,33,12.10
2022,04,16,15,34,12.20
2022,04,16,15,35,12.20
2022,04,16,15,36,12.30
2022,04,16,15,37,12.30
2022,04,16,15,38,12.30
2022,04,16,15,39,12.30
2022,04,16,15,40,12.30
2022,04,16,15,41,12.30
2022,04,16,15,42,12.30
2022,04,16,15,43,12.30
2022,04,16,15,44,12.20
2022,04,16,15,45,12.20
2022,04,16,15,46,12.10
2022,04,16,15,47,12.10
2022,04,16,15,48,12.20
2022,04,16,15,49,12.30
2022,04,16,15,50,12.30
2022,04,16,15,51,12.40
2022,04,16,15,52,12.40
2022,04,16,15,53,12.40
2022,04,16,15,54,12.30
2022,04,16,15,55,12.30
2022,04,16,15,56,12.30
2022,04,16,15,57,12.40
2022,04,16,15,58,12.40
2022,04,16,15,59,12.50
2022,04,16,16,00,12.60
2022,04,16,16,01,12.60
2022,04,16,16,02,12.70
2022,04,16,16,03,12.70
2022,04,16,16,04,12.60
2022,04,16,16,05,12.60
2022,04,16,16,06,12.40
2022,04,16,16,07,12.30
2022,04,16,16,08,12.10
2022,04,16,16,09,11.90
2022,04,16,16,10,11.80
2022,04,16,16,11,11.70
2022,04,16,16,12,11.60
2022,04,16,16,13,11.50
2022,04,16,16,14,11.40
2022,04,16,16,15,11.50
2022,04,16,16,16,11.50
2022,04,16,16,17,11.60
2022,04,16,16,18,11.60
2022,04,16,16,19,11.60
2022,04,16,16,20,11.60
2022,04,16,16,21,11.60
2022,04,16,16,22,11.70
2022,04,16,16,23,11.80
2022,04,16,16,24,11.90
2022,04,16,16,25,11.90
2022,04,16,16,26,12.00
2022,04,16,16,27,12.10
2022,04,16,16,28,12.10
2022,04,16,16,29,12.20
2022,04,16,16,30,12.30
2022,04,16,16,31,12.40
2022,04,16,16,32,12.50
2022,04,16,16,33,12.50
2022,04,16,16,34,12.40
2022,04,16,16,35,12.30
2022,04,16,16,36,12.30
2022,04,16,16,37,12.20
2022,04,16,16,38,12.10
2022,04,16,16,39,12.10
2022,04,16,16,40,12.20
2022,04,16,16,41,12.30
2022,04,16,16,42,12.30
2022,04,16,16,43,12.30
2022,04,16,16,44,12.20
2022,04,16,16,45,12.10
2022,04,16,16,46,12.10
2022,04,16,16,47,12.00
2022,04,16,16,48,12.00
2022,04,16,16,49,11.90
2022,04,16,16,50,11.90
2022,04,16,16,51,11.80
2022,04,16,16,52,11.80
2022,04,16,16,53,11.70
2022,04,16,16,54,11.70
2022,04,16,16,55,11.60
2022,04,16,16,56,11.60
2022,04,16,16,57,11.60
2022,04,16,16,58,11.50
2022,04,16,16,59,11.50
2022,04,16,17,00,11.50
2022,04,16,17,01,11.50
2022,04,16,17,02,11.40
2022,04,16,17,03,11.40
2022,04,16,17,04,11.40
2022,04,16,17,05,11.30
2022,04,16,17,06,11.40
2022,04,16,17,07,11.40
2022,04,16,17,08,11.40
2022,04,16,17,09,11.50
2022,04,16,17,10,11.50
2022,04,16,17,11,11.60
2022,04,16,17,12,11.60
2022,04,16,17,13,11.70
2022,04,16,17,14,11.80
2022,04,16,17,15,11.80
2022,04,16,17,16,11.90
2022,04,16,17,17,11.90
2022,04,16,17,18,12.00
2022,04,16,17,19,12.00
2022,04,16,17,20,12.10
2022,04,16,17,21,12.10
2022,04,16,17,22,12.20
2022,04,16,17,23,12.30
2022,04,16,17,24,12.40
2022,04,16,17,25,12.50
2022,04,16,17,26,12.50
2022,04,16,17,27,12.60
2022,04,16,17,28,12.70
2022,04,16,17,29,12.80
2022,04,16,17,30,12.80
2022,04,16,17,31,12.80
2022,04,16,17,32,12.80
2022,04,16,17,33,12.80
2022,04,16,17,34,12.70
2022,04,16,17,35,12.70
2022,04,16,17,36,12.70
2022,04,16,17,37,12.70
2022,04,16,17,38,12.70
2022,04,16,17,39,12.70
2022,04,16,17,40,12.80
2022,04,16,17,41,12.80
2022,04,16,17,42,12.80
2022,04,16,17,43,12.80
2022,04,16,17,44,12.80
2022,04,16,17,45,12.90
2022,04,16,17,46,12.90
2022,04,16,17,47,13.00
2022,04,16,17,48,13.10
2022,04,16,17,49,13.10
2022,04,16,17,50,13.10
2022,04,16,17,51,13.10
2022,04,16,17,52,13.20
2022,04,16,17,53,13.10
2022,04,16,17,54,13.10